Vertical_Velocity
2 3 1 -2 -4 -3 -5 -2 -1 -2 -1 -1 -0 -2 -2 -2 2 0 0 -1 1 0 -1 -0 -1 1 1 1 1 0 -1 1 4 -9 -4 -1 -0 1 0 -0 -1 -0 1
-1 -2 -3 -2 -2 -3 -2 -1 1 -0 1 2 -0 1 -1 -1 -1 -1 0 -0 0 2 0 0 -1 -0 -2 -1 2 -1 -1 -2 -1 2 -5 -3 -3 0 1 1 -1 -1 -1
-2 -1 -1 -1 -2 -2 -1 -2 1 0 1 -1 1 -1 -1 -2 -2 -0 -0 -1 -0 0 1 -0 -1 -0 -1 -0 -0 1 -0 -1 -1 2 -0 -3 -3 -1 -1 2 1 -2 0
-2 -1 -1 0 -1 -2 -2 -2 -3 -1 -1 -1 0 -0 1 0 1 0 -0 1 1 0 1 0 -1 -0 -1 -1 1 -0 -1 2 1 -0 -0 -2 -1 -4 -1 -1 -2 5 -0
0 -2 -2 -0 -2 -1 -1 -3 -2 -3 -1 -1 -2 -2 -1 -1 -0 0 2 0 -0 -1 -2 -1 1 1 0 -1 -0 -2 1 -0 -1 1 3 3 -1 -4 -2 -1 2 -2 3
-1 -1 -1 1 0 1 2 1 2 1 1 -1 -0 -2 -4 -2 -1 -1 1 -1 -2 1 1 -1 0 -1 0 2 1 0 -1 -1 -1 -0 -0 3 -1 0 -3 -1 1 -2 -2
-3 -2 -4 -3 -3 -2 -1 -1 -1 -1 -1 -1 -0 -0 -2 0 0 0 -0 -0 -1 -2 -0 1 1 0 1 1 1 2 1 -2 -1 -4 1 -3 5 -3 3 -3 -1 2 1
0 -0 -0 -1 -1 -1 0 -1 -2 -2 -1 -1 -3 -1 -2 -1 -1 -1 -0 0 1 0 -1 -1 3 -3 -3 3 3 1 1 -1 -2 -0 -0 -0 2 -2 1 0 1 1 2
-2 -2 -1 -2 -2 -2 -3 -3 -1 -1 -3 -4 -3 -3 -2 -4 -1 -1 1 -0 0 -0 -1 -2 3 2 -3 -7 3 3 2 -3 -2 0 3 3 0 -2 -3 2 -1 2 5
-2 -2 -2 -1 -0 -1 -1 -3 -3 -3 -3 -1 -5 -4 -1 -1 -5 -4 -2 1 1 0 -2 1 0 3 -1 -1 1 -1 2 -5 -1 -2 -0 1 0 2 -4 1 -1 3 -0
-1 -1 -1 -1 -2 -0 -4 -2 -1 -2 -1 -2 3 -1 -1 -0 -4 -0 -1 0 2 -0 1 -1 -2 2 2 0 -0 1 4 5 -1 3 -1 -2 -2 2 -2 1 -1 0 -1
-1 -1 -2 -2 -3 -2 -0 -3 -7 -3 -0 -3 -1 -2 -6 -5 -5 -0 -1 -1 -0 5 -2 -0 1 -3 -2 -0 -1 -1 0 3 4 3 5 3 -1 -3 -2 0 -3 -0 1
-2 -1 -1 -2 -4 -4 -3 -3 -3 -7 -4 -2 -1 0 4 -2 -6 -6 -3 -4 0 1 -0 4 1 -2 -2 0 -5 0 1 -2 -0 3 2 1 -0 1 0 1 1 -1 -2
-0 -2 -2 1 -1 -5 -3 -2 1 -2 -1 -4 -4 -1 -1 3 -3 -3 -3 -4 -2 -2 -1 3 4 3 -2 -0 -2 -3 -3 0 1 2 1 3 -1 -1 1 -2 -0 -1 5
1 -2 -3 -1 -1 2 -1 -0 -4 -6 -5 2 -2 -3 -4 3 -1 -3 -1 2 -0 -3 -3 -3 -0 0 3 1 0 0 1 -3 -1 -0 1 4 2 1 1 -4 -1 -5 3
1 -2 -2 -0 -2 -3 -1 6 -8 -3 2 -3 -7 -5 7 -5 3 5 1 -2 -1 -3 2 -1 2 1 3 4 3 2 -1 -2 -2 1 1 3 5 1 2 0 1 -0 0
0 2 2 -3 -2 0 -1 -3 -1 15 -13 -1 -2 -3 -10 -5 -5 -1 -0 -1 4 -3 -3 1 -1 -2 -1 0 2 4 7 -0 -4 -4 1 4 2 3 1 2 1 -0 0
-2 -2 1 1 -2 -1 -3 -2 -4 -9 3 18 7 -10 -3 -9 -5 -4 -3 -4 2 -2 -6 -2 0 -0 0 -1 -1 -5 -1 2 1 -3 -5 -2 -0 -1 -0 0 -2 -2 -3
-4 -0 -1 -1 0 -1 -3 -2 -2 -1 -2 -3 2 13 -3 -6 -2 1 -3 -8 -4 2 -0 -3 -7 -3 -1 -0 0 2 -1 -1 -0 -0 -1 -4 -1 -2 0 2 0 -0 -2
-2 -1 -0 0 2 -3 -3 -4 -2 -2 -1 -3 -2 -1 2 -8 -1 3 -0 -4 -6 -5 -3 -3 1 -1 -4 -4 -3 -2 0 1 1 1 4 1 -1 -2 -1 0 1 1 -1
-3 0 -3 -2 -1 -4 -3 -2 -3 -5 -3 -4 -2 2 -1 -12 3 3 2 3 -3 -4 -2 -3 -0 -0 1 -2 -4 -3 -3 -0 -2 -2 -2 0 2 2 -0 1 -0 0 1
-3 -1 3 -2 -1 -5 -6 -4 -5 -6 -4 -6 -0 0 -0 -4 -5 -3 1 3 4 -1 -1 -4 -1 -2 -2 -2 -2 -2 -0 1 0 -1 1 0 -0 0 1 1 1 4 3
-3 -1 -1 -2 -2 -5 -5 -4 -6 -5 -3 -1 -3 -2 2 -1 -1 -2 -2 -0 -2 1 1 -2 -2 1 -0 -1 -1 -0 1 2 1 -0 -0 -1 -1 -0 -1 -0 1 2 3
-1 -2 -6 -2 -2 -4 -4 -5 -3 0 -3 -2 -2 -1 -0 -0 -0 1 1 0 -1 -0 0 1 0 -1 0 1 1 1 1 1 -0 0 -1 -1 -1 -0 0 -0 1 1 2
-2 -6 -4 -2 -4 -3 -4 -2 -2 -2 -2 -3 -1 -1 -1 -1 -0 -1 0 -0 0 1 3 1 1 1 1 1 2 2 1 1 1 -0 -1 -2 -1 0 1 1 1 0 1
-2 -0 -1 -2 -2 -3 -4 -3 -1 -2 -1 -0 -0 -1 -2 -0 0 -0 -0 0 0 0 -1 1 2 0 1 2 1 -0 1 1 0 1 -0 1 1 0 -0 0 0 1 1
Height
5762 5759 5757 5755 5753 5750 5747 5742 5738 5734 5731 5728 5724 5721 5718 5715 5713 5710 5708 5706 5703 5700 5697 5696 5694 5694 5693 5692 5692 5692 5692 5691 5690 5688 5688 5687 5687 5686 5685 5684 5683 5681 5679
5751 5749 5747 5744 5741 5737 5734 5730 5726 5722 5720 5717 5715 5712 5709 5707 5704 5702 5700 5698 5696 5693 5690 5688 5687 5686 5684 5683 5684 5684 5684 5684 5684 5682 5681 5681 5681 5681 5680 5679 5677 5675 5674
5741 5738 5735 5732 5728 5724 5720 5717 5714 5712 5710 5708 5706 5703 5701 5699 5696 5694 5692 5689 5687 5685 5682 5679 5678 5678 5676 5675 5675 5675 5674 5675 5675 5675 5673 5672 5672 5672 5672 5671 5670 5669 5667
5730 5727 5723 5719 5716 5712 5710 5707 5705 5703 5700 5698 5696 5694 5692 5690 5687 5685 5683 5681 5678 5675 5672 5670 5667 5667 5666 5665 5665 5665 5665 5665 5664 5664 5665 5663 5662 5661 5662 5662 5660 5661 5659
5717 5714 5711 5708 5705 5702 5700 5698 5695 5693 5690 5688 5685 5684 5682 5680 5677 5675 5673 5671 5668 5665 5662 5660 5657 5655 5654 5654 5654 5654 5654 5654 5653 5652 5652 5652 5651 5651 5652 5652 5651 5650 5650
5704 5702 5700 5697 5695 5692 5690 5687 5684 5682 5680 5678 5676 5674 5672 5669 5667 5664 5662 5659 5657 5655 5652 5649 5647 5645 5643 5641 5641 5642 5642 5642 5642 5640 5640 5639 5638 5637 5638 5641 5639 5639 5639
5693 5691 5688 5686 5684 5682 5679 5676 5673 5670 5668 5666 5663 5661 5658 5656 5653 5651 5649 5647 5645 5642 5640 5638 5635 5633 5631 5629 5628 5628 5628 5627 5627 5627 5627 5626 5626 5623 5625 5626 5626 5628 5626
5681 5678 5676 5674 5672 5669 5666 5664 5661 5658 5655 5653 5650 5647 5644 5642 5640 5637 5635 5632 5630 5628 5626 5624 5623 5621 5618 5617 5616 5614 5613 5613 5611 5611 5613 5613 5611 5609 5608 5609 5611 5612 5613
5667 5665 5663 5660 5658 5655 5653 5650 5648 5645 5642 5639 5636 5634 5631 5628 5625 5623 5620 5618 5615 5612 5610 5609 5607 5606 5604 5603 5602 5601 5599 5598 5596 5597 5598 5598 5597 5596 5594 5593 5596 5596 5600
5654 5652 5649 5647 5644 5642 5639 5636 5634 5631 5628 5624 5620 5617 5614 5611 5608 5606 5604 5601 5599 5597 5594 5592 5590 5588 5587 5586 5585 5584 5584 5583 5583 5582 5581 5581 5582 5581 5580 5580 5580 5582 5583
5640 5637 5635 5632 5629 5626 5623 5621 5618 5614 5611 5608 5603 5599 5596 5593 5590 5587 5585 5583 5581 5579 5576 5574 5572 5570 5569 5567 5566 5566 5566 5566 5565 5566 5565 5564 5564 5565 5565 5565 5566 5566 5568
5625 5622 5618 5616 5613 5610 5606 5603 5599 5597 5593 5590 5587 5583 5578 5574 5571 5569 5566 5563 5561 5560 5557 5555 5553 5550 5549 5548 5547 5547 5547 5547 5547 5547 5547 5546 5546 5547 5548 5549 5549 5550 5551
5608 5605 5601 5598 5594 5591 5587 5584 5579 5576 5574 5570 5567 5564 5560 5554 5550 5548 5546 5543 5541 5539 5537 5535 5533 5530 5529 5528 5526 5526 5527 5527 5527 5528 5527 5527 5527 5527 5527 5529 5530 5532 5534
5590 5586 5583 5579 5575 5571 5567 5564 5561 5556 5553 5550 5546 5544 5540 5536 5531 5528 5525 5523 5519 5518 5517 5516 5514 5512 5510 5509 5507 5506 5506 5506 5507 5507 5508 5507 5507 5507 5507 5508 5509 5510 5513
5571 5567 5563 5559 5556 5552 5548 5544 5540 5535 5532 5528 5524 5521 5518 5515 5510 5507 5504 5501 5498 5496 5496 5493 5491 5490 5489 5487 5486 5485 5485 5485 5486 5486 5487 5488 5487 5488 5488 5489 5490 5491 5493
5552 5547 5543 5540 5536 5532 5528 5525 5518 5515 5510 5505 5501 5497 5495 5490 5488 5485 5481 5478 5475 5472 5471 5469 5468 5466 5465 5464 5463 5462 5461 5461 5462 5463 5465 5465 5466 5466 5467 5467 5468 5470 5472
5533 5528 5524 5519 5516 5511 5507 5503 5501 5494 5487 5484 5477 5472 5467 5468 5464 5460 5456 5453 5450 5447 5445 5443 5441 5440 5440 5439 5438 5438 5439 5438 5437 5437 5438 5441 5441 5443 5443 5445 5445 5446 5449
5513 5509 5505 5500 5495 5490 5486 5481 5476 5474 5471 5465 5456 5450 5445 5442 5440 5437 5432 5430 5428 5423 5421 5419 5417 5415 5414 5414 5413 5412 5413 5414 5414 5414 5413 5414 5415 5416 5418 5420 5420 5421 5422
5493 5489 5484 5480 5475 5470 5465 5460 5454 5449 5446 5444 5440 5433 5424 5422 5420 5415 5410 5407 5406 5403 5399 5397 5395 5393 5391 5390 5389 5389 5389 5389 5389 5389 5390 5390 5390 5390 5392 5393 5394 5395 5396
5474 5470 5466 5462 5456 5450 5445 5440 5434 5429 5425 5421 5417 5412 5405 5399 5398 5395 5388 5383 5380 5379 5376 5374 5373 5371 5370 5368 5367 5366 5366 5366 5366 5366 5366 5366 5366 5367 5368 5369 5371 5372 5373
5456 5452 5446 5442 5436 5430 5425 5420 5415 5410 5405 5400 5395 5389 5380 5375 5373 5370 5366 5361 5356 5354 5351 5350 5350 5348 5347 5346 5345 5344 5345 5345 5344 5344 5343 5343 5343 5344 5345 5346 5348 5350 5352
5438 5434 5429 5423 5416 5411 5406 5400 5394 5389 5383 5377 5372 5365 5356 5351 5347 5344 5341 5338 5333 5330 5328 5327 5327 5327 5326 5325 5324 5323 5323 5323 5322 5321 5321 5321 5321 5322 5323 5324 5326 5328 5330
5420 5416 5411 5405 5398 5392 5386 5380 5373 5366 5359 5352 5346 5340 5334 5329 5325 5322 5319 5315 5312 5311 5309 5307 5306 5306 5305 5304 5304 5304 5304 5304 5303 5303 5302 5302 5302 5302 5303 5304 5305 5307 5310
5403 5397 5391 5385 5378 5370 5364 5358 5351 5344 5336 5330 5325 5320 5315 5311 5308 5305 5302 5299 5297 5295 5293 5292 5290 5289 5289 5288 5288 5288 5289 5289 5287 5287 5286 5285 5284 5284 5283 5284 5285 5288 5291
5385 5378 5371 5364 5357 5350 5342 5335 5328 5323 5317 5312 5307 5303 5300 5296 5294 5291 5288 5285 5283 5281 5280 5278 5277 5276 5275 5275 5275 5276 5276 5275 5275 5273 5272 5270 5268 5268 5267 5267 5268 5270 5273
5366 5358 5351 5343 5336 5328 5321 5316 5311 5306 5301 5297 5293 5290 5286 5283 5279 5277 5275 5273 5271 5270 5268 5267 5265 5264 5264 5264 5265 5265 5265 5264 5263 5261 5259 5258 5257 5256 5255 5254 5255 5256 5258